TimePDT,TemperatureF,Dew PointF,Humidity,Sea Level PressureIn,VisibilityMPH,Wind Direction,Wind SpeedMPH,Gust SpeedMPH,PrecipitationIn,Events,Conditions,WindDirDegrees,DateUTC
12:53 AM,55.0,39.9,57,29.99,10.0,WNW,17.3,33.4,N/A,,Overcast,300,2013-10-08 07:53:00
1:53 AM,55.0,41.0,59,30.01,10.0,West,18.4,26.5,N/A,,Overcast,280,2013-10-08 08:53:00
2:53 AM,55.0,39.9,57,29.99,10.0,West,15.0,24.2,N/A,,Overcast,280,2013-10-08 09:53:00
3:53 AM,54.0,42.1,64,29.98,10.0,West,17.3,28.8,N/A,,Overcast,280,2013-10-08 10:53:00
4:53 AM,53.1,42.1,66,29.98,10.0,West,12.7,21.9,0.00,,Overcast,280,2013-10-08 11:53:00
5:53 AM,53.1,42.1,66,29.99,10.0,West,13.8,23.0,N/A,,Overcast,270,2013-10-08 12:53:00
6:53 AM,52.0,42.1,69,29.99,10.0,West,12.7,-,0.00,,Mostly Cloudy,260,2013-10-08 13:53:00
7:53 AM,50.0,44.1,80,29.99,7.0,West,10.4,-,0.00,Rain,Light Rain,280,2013-10-08 14:53:00
8:53 AM,50.0,46.9,89,29.99,10.0,Calm,Calm,-,0.07,Rain,Light Rain,0,2013-10-08 15:53:00
9:05 AM,50.0,46.9,89,29.98,1.8,WSW,10.4,-,0.04,Rain,Light Rain,250,2013-10-08 16:05:00
9:08 AM,50.0,46.0,86,29.98,3.0,West,11.5,17.3,0.04,Rain,Rain,260,2013-10-08 16:08:00
9:34 AM,50.0,46.9,89,29.98,10.0,WSW,6.9,-,0.04,,Overcast,240,2013-10-08 16:34:00
9:50 AM,51.8,46.4,82,29.97,10.0,WSW,11.5,-,0.04,,Scattered Clouds,250,2013-10-08 16:50:00
9:53 AM,52.0,46.0,80,29.98,10.0,WSW,11.5,-,0.04,,Scattered Clouds,250,2013-10-08 16:53:00
10:18 AM,52.0,46.9,83,29.98,10.0,SW,8.1,-,N/A,,Overcast,230,2013-10-08 17:18:00
10:33 AM,53.1,46.9,80,29.98,10.0,West,12.7,17.3,N/A,,Overcast,270,2013-10-08 17:33:00
10:53 AM,55.0,46.9,74,29.98,10.0,WNW,11.5,-,N/A,,Overcast,290,2013-10-08 17:53:00
11:53 AM,55.0,45.0,69,29.99,10.0,NW,9.2,19.6,N/A,,Mostly Cloudy,320,2013-10-08 18:53:00
12:53 PM,53.1,46.0,77,30.01,10.0,North,6.9,-,0.00,Rain,Light Rain,360,2013-10-08 19:53:00
1:53 PM,54.0,45.0,72,30.00,10.0,NNW,5.8,-,0.00,,Mostly Cloudy,330,2013-10-08 20:53:00
2:53 PM,57.0,41.0,55,30.00,10.0,North,4.6,-,N/A,,Clear,10,2013-10-08 21:53:00
3:53 PM,57.0,39.0,51,30.01,10.0,NW,4.6,-,N/A,,Clear,320,2013-10-08 22:53:00
4:53 PM,57.9,37.0,46,30.02,10.0,Calm,Calm,-,N/A,,Clear,0,2013-10-08 23:53:00
5:53 PM,54.0,41.0,62,30.03,10.0,East,4.6,-,N/A,,Clear,90,2013-10-09 00:53:00
6:53 PM,48.0,42.1,80,30.05,10.0,South,5.8,-,N/A,,Clear,190,2013-10-09 01:53:00
7:53 PM,44.1,41.0,89,30.06,10.0,Calm,Calm,-,N/A,,Clear,0,2013-10-09 02:53:00
8:53 PM,43.0,39.0,86,30.08,10.0,SSW,4.6,-,N/A,,Clear,210,2013-10-09 03:53:00
9:53 PM,45.0,39.0,80,30.10,10.0,WSW,5.8,-,N/A,,Mostly Cloudy,240,2013-10-09 04:53:00
10:53 PM,45.0,39.0,80,30.10,10.0,SW,9.2,-,N/A,,Mostly Cloudy,230,2013-10-09 05:53:00
11:53 PM,44.1,37.9,79,30.12,10.0,SW,4.6,-,N/A,,Clear,220,2013-10-09 06:53:00